Regional Weather Roundup
Issued by NWS Cleveland, OH

Home | Current Version | Previous Version | Text Only | Print | Product List | Glossary Off
Versions: 1 2 3 4 5 6 7 8 9 10 11 12 13 14 15 16 17 18 19 20 21 22 23 24 25 26 27 28 29 30 31 32 33 34 35 36 37 38 39 40 41 42 43 44 45 46 47 48 49 50

000
ASUS41 KCLE 220502
RWRCLE
OHIO REGIONAL WEATHER ROUNDUP
NATIONAL WEATHER SERVICE CLEVELAND, OH
100 AM EDT SAT JUL 22 2017

NOTE: "FAIR" INDICATES FEW OR NO CLOUDS BELOW 12,000 FEET WITH NO
SIGNIFICANT WEATHER AND/OR OBSTRUCTIONS TO VISIBILITY.

OHZ001>008-015>018-024>027-034-035-043-044-220600-
   NORTHWEST OHIO

CITY           SKY/WX    TMP DP  RH WIND       PRES   REMARKS
DEFIANCE       CLOUDY   N/A N/A N/A SW5       29.93F
FINDLAY        CLOUDY    74  70  87 S5        29.95S
TOLEDO EXPRESS CLOUDY    75  71  87 SE5       29.93S
TOLEDO EXEC    CLOUDY    77  71  82 SE6       29.95S
LIMA           PTCLDY    73  71  93 SE5       29.96F
$$

OHZ009>014-019>023-028>033-038-089-220600-
   NORTHEAST OHIO

CITY           SKY/WX    TMP DP  RH WIND       PRES   REMARKS
CLE-HOPKINS    CLOUDY    75  69  81 SE5       29.99R
CLE-LAKEFRONT  CLOUDY    78  66  66 SE7       29.96R
CUY CO. ARPT   NOT AVBL
LORAIN-ELYRIA  CLOUDY    72  66  81 SE3       29.98S
ASHTABULA      CLOUDY    68  67  96 CALM      30.00R
AKRON-CANTON   CLOUDY    77  70  79 SE6       30.00S
WOOSTER        CLOUDY    73  71  93 CALM      30.00S
MANSFIELD      CLOUDY    75  72  90 SE6       30.00S
YOUNGSTOWN     CLOUDY    68  66  93 CALM      30.01R
$$

OHZ042-051>053-060>062-070>072-077>081-220600-
  SOUTHWEST OHIO

CITY           SKY/WX    TMP DP  RH WIND       PRES   REMARKS
CINC-COVINGTON CLOUDY    75  74  96 S3        29.96F
CINC-LUNKEN    PTCLDY    74  73  97 CALM      29.96F
HAMILTON       CLOUDY    76  74  93 E3        29.95F
DAYTON         CLOUDY    73  72  96 SE6       29.97F
WRIGHT-PAT AFB NOT AVBL
DAYTON GENERAL CLOUDY    74  72  93 CALM      29.96F
WILMINGTON     PTCLDY    74  74 100 SE6       29.98S
$$

OHZ036-037-039>041-045>050-054>059-063>069-073>076-082>088-220600-
  CENTRAL AND SOUTHEAST OHIO

CITY           SKY/WX    TMP DP  RH WIND       PRES   REMARKS
COLUMBUS       CLEAR     75  74  96 S3        29.98S
OSU AIRPORT    CLEAR     74  74 100 CALM      29.98S
BOLTON FIELD   CLEAR     71  71 100 CALM      29.99F
RICKENBACK AFB CLEAR     72  72 100 S6        29.98S
NEWARK         CLEAR     71  70  96 CALM      29.98S FOG
MARION         CLOUDY    74  71  91 S7        29.98S
LANCASTER      PTCLDY    72  71  97 CALM      29.99F
ZANESVILLE     PTCLDY    74  72  93 S6        29.99S
NEW PHILLY     NOT AVBL
$$



USA.gov is the U.S. government's official web portal to all federal, state and local government web resources and services.